Weather History for Muscatine, IA

Change the Weather History Date:

Monday, December 31, 2012

  Actual Average Record
Temperature  
Mean Temperature 27 °F -  
Max Temperature 37 °F 29 °F 60 °F (1965)
Min Temperature 17 °F 13 °F -13 °F (1976)
Degree Days  
Heating Degree Days 38    
Moisture  
Dew Point 15 °F    
Average Humidity 66    
Maximum Humidity 74    
Minimum Humidity 58    
Precipitation  
Precipitation 0.00 in - - ()
Sea Level Pressure  
Sea Level Pressure 30.12 in    
Wind  
Wind Speed 11 mph (WNW)    
Max Wind Speed 16 mph    
Max Gust Speed 20 mph    
Visibility 10 miles    
Events      
Averages and records for this station are not official NWS values.
T = Trace of Precipitation, MM = Missing Value Source: NWS Daily Summary

Daily Weather History Graph

Daily Weather History Graph

Search for Another Location

Airport:

Trip Planner

Search our weather history database for the weather conditions in past years. The results will help you decide how hot, cold, wet, or windy it might be!

Date:

Astronomy

Dec. 31, 2012 Rise Set
Actual Time 7:30 AM CST 4:45 PM CST
Civil Twilight 6:59 AM CST 5:16 PM CST
Nautical Twilight 6:24 AM CST 5:51 PM CST
Astronomical Twilight 5:51 AM CST 6:24 PM CST
Moon 8:18 PM CST (12/31) 9:10 AM CST (12/31)
Length of Visible Light 10h 17m
Length of Day
9h 14m
Waning Gibbous, 90% of the Moon is Illuminated
Dec 31
Waning Gibbous
Jan 4
Last Quarter
Jan 11
New
Jan 18
First Quarter
Jan 26
Full

Hourly Weather History & Observations

Time (CST) Temp. Windchill Dew Point Humidity Pressure Visibility Wind Dir Wind Speed Gust Speed Precip Events Conditions
12:15 AM 37.4 °F 29.3 °F 24.8 °F 60% 30.04 in 10.0 mi SSW 12.7 mph 19.6 mph N/A   Clear
12:35 AM 37.4 °F 28.9 °F 24.8 °F 60% 30.04 in 10.0 mi SSW 13.8 mph 19.6 mph N/A   Clear
12:55 AM 37.4 °F 29.8 °F 24.8 °F 60% 30.04 in 10.0 mi SSW 11.5 mph - N/A   Clear
1:15 AM 37.4 °F 29.8 °F 24.8 °F 60% 30.03 in 10.0 mi SSW 11.5 mph - N/A   Clear
1:55 AM 35.6 °F 28.0 °F 24.8 °F 65% 30.05 in 10.0 mi SSW 10.4 mph - N/A   Clear
2:15 AM 35.6 °F 27.5 °F 23.0 °F 60% 30.05 in 10.0 mi SSW 11.5 mph - N/A   Scattered Clouds
2:35 AM 35.6 °F 28.6 °F 23.0 °F 60% 30.05 in 10.0 mi SW 9.2 mph - N/A   Clear
2:55 AM 35.6 °F 27.1 °F 23.0 °F 60% 30.07 in 10.0 mi SW 12.7 mph - N/A   Clear
3:15 AM 35.6 °F 28.6 °F 23.0 °F 60% 30.07 in 10.0 mi SW 9.2 mph - N/A   Scattered Clouds
3:35 AM 35.6 °F 29.2 °F 23.0 °F 60% 30.06 in 10.0 mi SW 8.1 mph - N/A   Clear
3:55 AM 35.6 °F 28.6 °F 23.0 °F 60% 30.07 in 10.0 mi WSW 9.2 mph - N/A   Clear
4:15 AM 33.8 °F 26.4 °F 24.8 °F 70% 30.07 in 10.0 mi West 9.2 mph - N/A   Clear
4:35 AM 33.8 °F 27.7 °F 24.8 °F 70% 30.06 in 10.0 mi West 6.9 mph - N/A   Clear
4:55 AM 33.8 °F 24.8 °F 24.8 °F 70% 30.07 in 10.0 mi WNW 12.7 mph - N/A   Clear
5:15 AM 32.0 °F 23.0 °F 23.0 °F 69% 30.07 in 10.0 mi WNW 11.5 mph 16.1 mph N/A   Scattered Clouds
5:35 AM 30.2 °F 21.3 °F 21.2 °F 69% 30.08 in 10.0 mi WNW 10.4 mph 17.3 mph N/A   Scattered Clouds
5:55 AM 30.2 °F 20.2 °F 21.2 °F 69% 30.08 in 10.0 mi NW 12.7 mph - N/A   Scattered Clouds
6:15 AM 28.4 °F 18.5 °F 19.4 °F 69% 30.09 in 10.0 mi West 11.5 mph - N/A   Mostly Cloudy
6:55 AM 26.6 °F 18.2 °F 19.4 °F 74% 30.10 in 10.0 mi WNW 8.1 mph 11.5 mph N/A   Mostly Cloudy
7:15 AM 26.6 °F 18.2 °F 19.4 °F 74% 30.12 in 10.0 mi WNW 8.1 mph - N/A   Mostly Cloudy
7:35 AM 26.6 °F 15.2 °F 17.6 °F 69% 30.12 in 10.0 mi WNW 13.8 mph - N/A   Scattered Clouds
7:55 AM 26.6 °F 17.5 °F 17.6 °F 69% 30.11 in 10.0 mi NW 9.2 mph - N/A   Clear
8:15 AM 24.8 °F 13.4 °F 15.8 °F 69% 30.11 in 10.0 mi NW 12.7 mph - N/A   Clear
8:35 AM 24.8 °F 12.9 °F 14.0 °F 64% 30.12 in 10.0 mi WNW 13.8 mph - N/A   Clear
8:55 AM 23.0 °F 11.7 °F 14.0 °F 68% 30.13 in 10.0 mi WNW 11.5 mph - N/A   Clear
9:15 AM 23.0 °F 13.9 °F 14.0 °F 68% 30.14 in 10.0 mi WNW 8.1 mph - N/A   Clear
9:35 AM 23.0 °F 12.4 °F 14.0 °F 68% 30.15 in 10.0 mi WNW 10.4 mph - N/A   Clear
9:55 AM 23.0 °F 13.1 °F 14.0 °F 68% 30.15 in 10.0 mi WNW 9.2 mph - N/A   Clear
10:15 AM 23.0 °F 12.4 °F 14.0 °F 68% 30.16 in 10.0 mi WNW 10.4 mph - N/A   Clear
10:35 AM 21.2 °F 8.9 °F 14.0 °F 74% 30.16 in 10.0 mi WNW 12.7 mph - N/A   Clear
10:55 AM 21.2 °F 8.9 °F 12.2 °F 68% 30.16 in 10.0 mi WNW 12.7 mph - N/A   Clear
11:15 AM 21.2 °F 10.9 °F 12.2 °F 68% 30.16 in 10.0 mi WNW 9.2 mph - N/A   Clear
11:35 AM 21.2 °F 9.5 °F 12.2 °F 68% 30.15 in 10.0 mi WNW 11.5 mph - N/A   Clear
11:55 AM 21.2 °F 8.9 °F 12.2 °F 68% 30.14 in 10.0 mi WNW 12.7 mph - N/A   Clear
12:15 PM 21.2 °F 8.3 °F 12.2 °F 68% 30.14 in 10.0 mi WNW 13.8 mph - N/A   Clear
12:35 PM 21.2 °F 7.3 °F 12.2 °F 68% 30.14 in 10.0 mi WNW 16.1 mph - N/A   Clear
12:55 PM 21.2 °F 8.3 °F 12.2 °F 68% 30.13 in 10.0 mi NW 13.8 mph - N/A   Clear
1:15 PM 21.2 °F 8.3 °F 12.2 °F 68% 30.13 in 10.0 mi WNW 13.8 mph 17.3 mph N/A   Clear
1:35 PM 21.2 °F 8.9 °F 12.2 °F 68% 30.12 in 10.0 mi NW 12.7 mph - N/A   Clear
1:55 PM 21.2 °F 9.5 °F 12.2 °F 68% 30.12 in 10.0 mi WNW 11.5 mph - N/A   Clear
2:15 PM 21.2 °F 10.1 °F 12.2 °F 68% 30.12 in 10.0 mi WNW 10.4 mph - N/A   Clear
2:35 PM 21.2 °F 10.1 °F 12.2 °F 68% 30.13 in 10.0 mi NW 10.4 mph - N/A   Clear
2:55 PM 21.2 °F 10.1 °F 12.2 °F 68% 30.12 in 10.0 mi NW 10.4 mph - N/A   Clear
3:15 PM 21.2 °F 11.7 °F 10.4 °F 63% 30.12 in 10.0 mi NW 8.1 mph - N/A   Scattered Clouds
3:35 PM 21.2 °F 10.9 °F 10.4 °F 63% 30.13 in 10.0 mi NW 9.2 mph - N/A   Clear
3:55 PM 21.2 °F 10.9 °F 10.4 °F 63% 30.12 in 10.0 mi NW 9.2 mph - N/A   Mostly Cloudy
4:15 PM 19.4 °F 9.5 °F 10.4 °F 68% 30.12 in 10.0 mi NW 8.1 mph - N/A   Overcast
4:35 PM 19.4 °F 10.4 °F 10.4 °F 68% 30.12 in 10.0 mi NW 6.9 mph - N/A   Scattered Clouds
4:55 PM 19.4 °F 10.4 °F 10.4 °F 68% 30.13 in 10.0 mi NW 6.9 mph - N/A   Mostly Cloudy
5:15 PM 19.4 °F 9.5 °F 10.4 °F 68% 30.13 in 10.0 mi NW 8.1 mph - N/A   Overcast
5:35 PM 19.4 °F 10.4 °F 10.4 °F 68% 30.14 in 10.0 mi NW 6.9 mph - N/A   Overcast
5:55 PM 19.4 °F 11.5 °F 10.4 °F 68% 30.15 in 10.0 mi NW 5.8 mph - N/A   Overcast
6:15 PM 19.4 °F 10.4 °F 10.4 °F 68% 30.15 in 10.0 mi NW 6.9 mph - N/A   Overcast
6:35 PM 19.4 °F 11.5 °F 10.4 °F 68% 30.16 in 10.0 mi NNW 5.8 mph - N/A   Mostly Cloudy
6:55 PM 19.4 °F 12.8 °F 10.4 °F 68% 30.16 in 10.0 mi NNW 4.6 mph - N/A   Mostly Cloudy
7:15 PM 19.4 °F 11.5 °F 10.4 °F 68% 30.15 in 10.0 mi NNW 5.8 mph - N/A   Overcast
7:35 PM 19.4 °F 11.5 °F 10.4 °F 68% 30.17 in 10.0 mi NW 5.8 mph - N/A   Overcast
7:55 PM 19.4 °F 9.5 °F 8.6 °F 63% 30.17 in 10.0 mi NNW 8.1 mph - N/A   Overcast
8:35 PM 19.4 °F 6.6 °F 8.6 °F 63% 30.16 in 10.0 mi NNW 12.7 mph - N/A   Overcast
9:15 PM 19.4 °F 7.9 °F 8.6 °F 63% 30.18 in 10.0 mi NNW 10.4 mph - N/A   Overcast
9:35 PM 19.4 °F 7.9 °F 8.6 °F 63% 30.19 in 10.0 mi NNW 10.4 mph - N/A   Overcast
9:55 PM 19.4 °F 6.6 °F 6.8 °F 58% 30.20 in 10.0 mi NNW 12.7 mph - N/A   Overcast
10:15 PM 19.4 °F 7.9 °F 8.6 °F 63% 30.20 in 10.0 mi North 10.4 mph - N/A   Overcast
10:35 PM 19.4 °F 9.5 °F 6.8 °F 58% 30.20 in 10.0 mi NNW 8.1 mph - N/A   Overcast
11:15 PM 17.6 °F 5.7 °F 8.6 °F 68% 30.21 in 10.0 mi NNW 10.4 mph - N/A   Overcast
11:35 PM 17.6 °F 6.4 °F 8.6 °F 68% 30.21 in 10.0 mi NNW 9.2 mph - N/A   Overcast